Location: Artiguedieu
(43.5000°N, 0.5454°E)
Time: 07:55:20
(UTC+00:00)

Explorer 7 - Pass Details

Date: 03 August 2021
Orbit: 484 x 676 km, 50.3° (Epoch: 22 September)

Event Time Altitude Azimuth Distance (km) Brightness Sun altitude
Rises 05:21:17 0° 259° (W) 2,551 9.5 4.5°
Reaches altitude 10° 05:23:29 10° 265° (W) 1,684 8.7 4.8°
Maximum altitude 05:27:09 46° 340° (NNW) 682 7.4 5.5°
Drops below altitude 10° 05:31:00 10° 55° (NE) 1,761 11.3 6.1°
Sets 05:33:21 0° 62° (ENE) 2,684 12.5 6.5°
